Weather Roundup
Issued by NWS

Home | Current Version | Previous Version | Text Only | Print | Product List | Glossary On
Versions: 1 2 3 4 5 6 7 8 9 10 11 12 13 14 15 16 17 18 19 20 21 22 23 24 25 26 27 28 29 30 31 32 33 34 35 36 37 38 39 40 41 42 43 44 45 46 47 48 49 50
000
NZUS93 KARX 252359
HRRWXR

CURRENT HOURLY OBSERVATIONS ACROSS
MUCH OF THE UPPER MISSISSIPPI VALLEY
NATIONAL WEATHER SERVICE LA CROSSE WI
600 PM CST SUN JAN 25 2015


...SOUTHEAST MINNESOTA...


CITY           SKY/WX    TMP DP  RH WIND       PRES   REMARKS
ROCHESTER      CLOUDY    24  17  74 N5        30.02R WCI  18
ROCHESTER/MAYO CLOUDY    25  16  67 NW3       30.03R
WINONA         CLEAR     25  18  74 CALM      30.06R
AUSTIN         CLOUDY    25  21  86 NW6       30.03R WCI  18
ALBERT LEA     CLOUDY    25  21  86 W7        30.03S WCI  17
DODGE CENTER   CLOUDY    23  19  86 N3        30.02S
PRESTON        MOCLDY    23  17  77 CALM      30.02R
OWATONNA       CLOUDY    23  18  80 W5        30.04R WCI  17
FARIBAULT      CLOUDY    21  18  86 CALM      30.05S
$$

...ELSEWHERE IN MINNESOTA...


CITY           SKY/WX    TMP DP  RH WIND       PRES   REMARKS
MINNEAPOLIS    PTCLDY    23  12  62 SE5       30.05S WCI  17
INTNL FALLS    CLOUDY    17  10  74 SE3       29.94F
DULUTH         CLOUDY    20  14  77 CALM      30.01R
RED WING       CLEAR     19  12  73 CALM      30.05S
REDWOOD FALLS  CLOUDY    30  23  75 CALM      30.03F
MANKATO        CLOUDY    25  16  68 E3        30.04S
WORTHINGTON    CLOUDY    28  27  93 NW3       30.02F
FAIRMONT       CLOUDY    28  21  74 NW6       30.03S WCI  22
$$

...SOUTHWEST WISCONSIN...


CITY           SKY/WX    TMP DP  RH WIND       PRES   REMARKS
LA CROSSE      PTCLDY    24  14  65 N5        30.05R WCI  18
PRAIRIE DU CHI CLEAR     26  14  60 NE5       30.04R WCI  20
BOSCOBEL       CLEAR     23  11  60 NE5       30.05R WCI  17
LONE ROCK      NOT AVBL
PLATTEVILLE    CLEAR     20  15  79 NW10      30.01R WCI   9
FORT MC COY    CLOUDY    23  12  62 E6        30.04F WCI  15
VIROQUA        FAIR      21  12  67 NE6       30.00S WCI  14
WIS DELLS      NOT AVBL
$$

...ELSEWHERE IN WISCONSIN...


CITY           SKY/WX    TMP DP  RH WIND       PRES   REMARKS
MILWAUKEE      MOCLDY    25  13  60 N17       30.00R WCI  12
MADISON        PTCLDY    19  11  70 N10       30.02R WCI   7
GREEN BAY      CLEAR     16   9  74 NE7       30.07R WCI   6
EAU CLAIRE     NOT AVBL
BLACK RVR FLS  CLOUDY    24  11  57 NE5       30.03F WCI  18
MEDFORD        CLOUDY    17   9  70 S5        29.98F WCI  10
WAUSAU         CLOUDY    16   6  65 CALM      30.00S
WIS RAPIDS     CLOUDY    18   5  57 SE3       30.04F
MARSHFIELD     CLOUDY    20   9  62 E3        30.01S
RICE LAKE      CLOUDY    21  11  66 CALM      30.03S
$$

...NORTHEAST IOWA...


CITY           SKY/WX    TMP DP  RH WIND       PRES   REMARKS
DECORAH        CLEAR     25  18  74 NE5       29.99S WCI  19
MASON CITY     CLOUDY    27  24  89 NW9       30.05R WCI  18
CHARLES CITY   CLOUDY    28  27  93 N8G14     30.02R WCI  20
OELWEIN        PTCLDY    27  21  80 N6        30.01R WCI  20
$$

...ELSEWHERE IN IOWA...


CITY           SKY/WX    TMP DP  RH WIND       PRES   REMARKS
DES MOINES     CLOUDY    34  27  75 N10       30.05R WCI  26
IOWA CITY      CLOUDY    27  20  75 N8        30.04R WCI  19
FORT DODGE     CLOUDY    30  23  74 NW7       30.06R WCI  23
$$

...NORTHERN ILLINOIS...


CITY           SKY/WX    TMP DP  RH WIND       PRES   REMARKS
CHICAGO-OHARE  CLOUDY    26  17  68 N16       29.94R WCI  14
CHICAGO-MIDWAY FLURRIES  29  20  69 N18G26    29.94R WCI  16
MOLINE         PTCLDY    27  17  66 N15       30.00R WCI  15
ROCKFORD       PTCLDY    24  12  60 NE17      30.00R WCI  11
PEORIA         CLOUDY    30  22  72 NE12G21   29.93R WCI  20
$$

NOTE: "FAIR" INDICATES FEW OR NO CLOUDS BELOW 12,000 FEET WITH NO
SIGNIFICANT WEATHER AND/OR OBSTRUCTIONS TO VISIBILITY. WIND
SPEEDS ARE IN MILES-PER-HOUR.



USA.gov is the U.S. government's official web portal to all federal, state and local government web resources and services.